This is the latest recevied weather packets stored in our database for station/object VK3ANZ. If no packets are shown the sender has not sent any weather packets the latest 10 day(s).
| Time | Temp. | Humidity | Pressure | Rain* | Wind** | Luminosity | Snow |
|---|---|---|---|---|---|---|---|
| 1777694124 | 22.22° C | 12% | 1017.2 hPa | 0 mm | - | 121 W/m² | - |
| 1777688731 | 21.67° C | 15% | 1018.6 hPa | 0 mm | - | 152 W/m² | - |
| 1777688123 | 21.67° C | 15% | 1018.9 hPa | 0 mm | - | 185 W/m² | - |
| 1777683922 | 20.56° C | 17% | 1020.4 hPa | 0 mm | - | 93 W/m² | - |
| 1777680923 | 20° C | 18% | 1020.7 hPa | 0 mm | - | 92 W/m² | - |
| 1777679723 | 20° C | 18% | 1020.8 hPa | 0 mm | - | 99 W/m² | - |
| 1777676732 | 18.89° C | 19% | 1020.9 hPa | 0 mm | - | 51 W/m² | - |
| 1777676124 | 18.89° C | 20% | 1020.9 hPa | 0 mm | - | 56 W/m² | - |
| 1777670731 | 17.78° C | 20% | 1020.4 hPa | 0 mm | - | 8 W/m² | - |
| 1777664731 | 16.67° C | 20% | 1020.1 hPa | 0 mm | - | 0 W/m² | - |
| 1777660523 | 16.11° C | 19% | 1020.2 hPa | 0 mm | - | 0 W/m² | - |
| 1777658126 | 15.56° C | 22% | 1020.3 hPa | 0 mm | - | 0 W/m² | - |
| 1777655130 | 15° C | 24% | 1020.6 hPa | 0 mm | - | 0 W/m² | - |
| 1777653930 | 15° C | 24% | 1020.7 hPa | 0 mm | - | 0 W/m² | - |
| 1777653327 | 15° C | 24% | 1020.7 hPa | 0 mm | - | 0 W/m² | - |
| 1777650943 | 15° C | 25% | 1021.2 hPa | 0 mm | - | 0 W/m² | - |
| 1777647930 | 15.56° C | 23% | 1021.6 hPa | 0 mm | - | 0 W/m² | - |
| 1777647322 | 15.56° C | 23% | 1021.6 hPa | 0 mm | - | 0 W/m² | - |
| 1777644330 | 16.67° C | 21% | 1022 hPa | 0 mm | - | 0 W/m² | - |
| 1777643722 | 16.67° C | 20% | 1022.2 hPa | 0 mm | - | 0 W/m² | - |
| 1777638330 | 17.78° C | 18% | 1022.8 hPa | 0 mm | - | 0 W/m² | - |
| 1777637762 | 17.78° C | 18% | 1022.9 hPa | 0 mm | - | 0 W/m² | - |
| 1777637130 | 17.78° C | 20% | 1023 hPa | 0 mm | - | 0 W/m² | - |
| 1777632330 | 19.44° C | 19% | 1023.1 hPa | 0 mm | - | 0 W/m² | - |
| 1777624521 | 19.44° C | 19% | 1022.9 hPa | 0 mm | - | 0 W/m² | - |
* Rain latest hour (hover to see other rain measurements)
** Current wind speed in m/s (hover to see current wind gust speed)